Time,TemperatureF,DewpointF,PressureIn,WindDirection,WindDirectionDegrees,WindSpeedMPH,WindSpeedGustMPH,Humidity,HourlyPrecipIn,Conditions,Clouds,dailyrainin,SoftwareType,DateUTC
2013-12-22 00:02:00,7.2,-2.2,29.86,NW,315,17.0,20.0,65,0.00,,,0.00,meteohub,2013-12-22 06:02:00,
2013-12-22 00:07:00,7.3,-2.0,29.86,North,0,21.0,21.0,65,0.00,,,0.00,meteohub,2013-12-22 06:07:00,
2013-12-22 00:12:00,7.5,-1.8,29.87,WNW,293,17.0,21.0,65,0.00,,,0.00,meteohub,2013-12-22 06:12:00,
2013-12-22 00:17:00,7.5,-1.8,29.87,NW,315,17.0,21.0,65,0.00,,,0.00,meteohub,2013-12-22 06:17:00,
2013-12-22 00:22:00,7.3,-2.0,29.86,NW,315,20.0,21.0,65,0.00,,,0.00,meteohub,2013-12-22 06:22:00,
2013-12-22 00:27:00,7.2,-2.2,29.86,NW,315,19.0,20.0,65,0.00,,,0.00,meteohub,2013-12-22 06:27:00,
2013-12-22 00:32:00,7.0,-2.4,29.86,NW,315,20.0,21.0,65,0.00,,,0.00,meteohub,2013-12-22 06:32:00,
2013-12-22 00:38:00,6.8,-2.4,29.86,NW,315,18.0,21.0,65,0.00,,,0.00,meteohub,2013-12-22 06:38:00,
2013-12-22 00:43:00,6.8,-2.4,29.86,WNW,293,18.0,21.0,65,0.00,,,0.00,meteohub,2013-12-22 06:43:00,
2013-12-22 00:48:00,6.8,-2.4,29.86,NW,315,20.0,21.0,65,0.00,,,0.00,meteohub,2013-12-22 06:48:00,
2013-12-22 00:53:00,6.8,-2.4,29.87,NW,315,19.0,21.0,65,0.00,,,0.00,meteohub,2013-12-22 06:53:00,
2013-12-22 00:59:00,6.8,-2.4,29.87,NW,315,17.0,21.0,65,0.00,,,0.00,meteohub,2013-12-22 06:59:00,
2013-12-22 01:00:00,6.8,-2.4,29.88,West,270,17.0,21.0,65,0.00,,,0.00,meteohub,2013-12-22 07:00:00,
2013-12-22 01:05:00,6.3,-2.9,29.87,NW,315,16.0,20.0,65,0.00,,,0.00,meteohub,2013-12-22 07:05:00,
2013-12-22 01:10:00,6.1,-3.1,29.87,NW,315,17.0,20.0,65,0.00,,,0.00,meteohub,2013-12-22 07:10:00,
2013-12-22 01:15:00,6.1,-3.1,29.88,NW,315,15.0,19.0,65,0.00,,,0.00,meteohub,2013-12-22 07:15:00,
2013-12-22 01:20:00,6.1,-3.1,29.88,NW,315,20.0,20.0,65,0.00,,,0.00,meteohub,2013-12-22 07:20:00,
2013-12-22 01:25:00,6.1,-3.1,29.88,NW,315,18.0,21.0,65,0.00,,,0.00,meteohub,2013-12-22 07:25:00,
2013-12-22 01:31:00,5.9,-3.3,29.87,NW,315,18.0,21.0,65,0.00,,,0.00,meteohub,2013-12-22 07:31:00,
2013-12-22 01:36:00,5.7,-3.5,29.87,NW,315,20.0,21.0,65,0.00,,,0.00,meteohub,2013-12-22 07:36:00,
2013-12-22 01:41:00,5.9,-3.3,29.88,NW,315,17.0,21.0,65,0.00,,,0.00,meteohub,2013-12-22 07:41:00,
2013-12-22 01:46:00,5.9,-3.3,29.88,NW,315,21.0,21.0,65,0.00,,,0.00,meteohub,2013-12-22 07:46:00,
2013-12-22 01:52:00,5.9,-3.3,29.88,NW,315,19.0,21.0,65,0.00,,,0.00,meteohub,2013-12-22 07:52:00,
2013-12-22 01:57:00,5.9,-3.3,29.88,NW,315,21.0,21.0,65,0.00,,,0.00,meteohub,2013-12-22 07:57:00,
2013-12-22 02:02:00,5.5,-3.6,29.88,NW,315,18.0,23.0,65,0.00,,,0.00,meteohub,2013-12-22 08:02:00,
2013-12-22 02:07:00,5.4,-3.8,29.88,NW,315,21.0,23.0,65,0.00,,,0.00,meteohub,2013-12-22 08:07:00,
2013-12-22 02:13:00,5.2,-4.0,29.88,NW,315,21.0,23.0,65,0.00,,,0.00,meteohub,2013-12-22 08:13:00,
2013-12-22 02:18:00,5.0,-4.2,29.89,NW,315,21.0,23.0,65,0.00,,,0.00,meteohub,2013-12-22 08:18:00,
2013-12-22 02:23:00,4.6,-4.5,29.89,West,270,20.0,23.0,65,0.00,,,0.00,meteohub,2013-12-22 08:23:00,
2013-12-22 02:28:00,4.6,-4.5,29.90,NW,315,19.0,22.0,65,0.00,,,0.00,meteohub,2013-12-22 08:28:00,
2013-12-22 02:33:00,4.5,-4.7,29.90,NW,315,20.0,22.0,65,0.00,,,0.00,meteohub,2013-12-22 08:33:00,
2013-12-22 02:38:00,4.3,-4.9,29.90,West,270,21.0,22.0,65,0.00,,,0.00,meteohub,2013-12-22 08:38:00,
2013-12-22 02:44:00,4.1,-5.1,29.90,NW,315,20.0,23.0,65,0.00,,,0.00,meteohub,2013-12-22 08:44:00,
2013-12-22 02:49:00,4.1,-5.1,29.90,NW,315,21.0,23.0,65,0.00,,,0.00,meteohub,2013-12-22 08:49:00,
2013-12-22 02:54:00,4.1,-5.1,29.91,NW,315,21.0,23.0,65,0.00,,,0.00,meteohub,2013-12-22 08:54:00,
2013-12-22 02:59:00,3.9,-5.3,29.90,NW,315,21.0,23.0,65,0.00,,,0.00,meteohub,2013-12-22 08:59:00,
2013-12-22 03:04:00,3.7,-5.4,29.91,NW,315,17.0,23.0,65,0.00,,,0.00,meteohub,2013-12-22 09:04:00,
2013-12-22 03:09:00,3.7,-5.4,29.91,NW,315,21.0,23.0,65,0.00,,,0.00,meteohub,2013-12-22 09:09:00,
2013-12-22 03:14:00,3.6,-5.8,29.91,NW,315,18.0,23.0,64,0.00,,,0.00,meteohub,2013-12-22 09:14:00,
2013-12-22 03:20:00,3.7,-5.6,29.91,NW,315,18.0,23.0,64,0.00,,,0.00,meteohub,2013-12-22 09:20:00,
2013-12-22 03:25:00,3.7,-5.6,29.91,NW,315,19.0,23.0,64,0.00,,,0.00,meteohub,2013-12-22 09:25:00,
2013-12-22 03:30:00,3.6,-5.8,29.91,NW,315,21.0,23.0,64,0.00,,,0.00,meteohub,2013-12-22 09:30:00,
2013-12-22 03:35:00,3.6,-5.8,29.91,NW,315,18.0,23.0,64,0.00,,,0.00,meteohub,2013-12-22 09:35:00,
2013-12-22 03:40:00,3.6,-5.8,29.91,NW,315,21.0,23.0,64,0.00,,,0.00,meteohub,2013-12-22 09:40:00,
2013-12-22 03:45:00,3.4,-6.0,29.91,NW,315,22.0,24.0,64,0.00,,,0.00,meteohub,2013-12-22 09:45:00,
2013-12-22 03:50:00,3.6,-5.8,29.91,NW,315,21.0,24.0,64,0.00,,,0.00,meteohub,2013-12-22 09:50:00,
2013-12-22 03:55:00,3.2,-6.2,29.91,NW,315,23.0,24.0,64,0.00,,,0.00,meteohub,2013-12-22 09:55:00,
2013-12-22 04:00:00,3.2,-6.2,29.91,NW,315,21.0,23.0,64,0.00,,,0.00,meteohub,2013-12-22 10:00:00,
2013-12-22 04:05:00,3.0,-6.2,29.91,NW,315,21.0,23.0,65,0.00,,,0.00,meteohub,2013-12-22 10:05:00,
2013-12-22 04:11:00,2.8,-6.2,29.91,NW,315,24.0,24.0,65,0.00,,,0.00,meteohub,2013-12-22 10:11:00,
2013-12-22 04:16:00,2.7,-6.3,29.91,NW,315,27.0,27.0,65,0.00,,,0.00,meteohub,2013-12-22 10:16:00,
2013-12-22 04:21:00,2.5,-6.5,29.92,NW,315,24.0,27.0,65,0.00,,,0.00,meteohub,2013-12-22 10:21:00,
2013-12-22 04:26:00,2.3,-6.7,29.91,NW,315,23.0,27.0,65,0.00,,,0.00,meteohub,2013-12-22 10:26:00,
2013-12-22 04:31:00,2.1,-6.9,29.91,NW,315,21.0,27.0,65,0.00,,,0.00,meteohub,2013-12-22 10:31:00,
2013-12-22 04:36:00,2.1,-7.2,29.92,NW,315,22.0,27.0,64,0.00,,,0.00,meteohub,2013-12-22 10:36:00,
2013-12-22 04:42:00,1.8,-7.6,29.92,NW,315,23.0,27.0,64,0.00,,,0.00,meteohub,2013-12-22 10:42:00,
2013-12-22 04:47:00,1.8,-7.6,29.93,NW,315,21.0,25.0,64,0.00,,,0.00,meteohub,2013-12-22 10:47:00,
2013-12-22 04:52:00,1.8,-7.6,29.93,NW,315,22.0,25.0,64,0.00,,,0.00,meteohub,2013-12-22 10:52:00,
2013-12-22 04:57:00,1.8,-7.6,29.93,NW,315,19.0,25.0,64,0.00,,,0.00,meteohub,2013-12-22 10:57:00,
2013-12-22 05:02:00,1.8,-7.6,29.93,NW,315,21.0,23.0,64,0.00,,,0.00,meteohub,2013-12-22 11:02:00,
2013-12-22 05:07:00,1.8,-7.6,29.93,NW,315,17.0,23.0,64,0.00,,,0.00,meteohub,2013-12-22 11:07:00,
2013-12-22 05:13:00,1.8,-7.6,29.94,NW,315,23.0,23.0,64,0.00,,,0.00,meteohub,2013-12-22 11:13:00,
2013-12-22 05:18:00,1.8,-7.6,29.93,NW,315,21.0,23.0,64,0.00,,,0.00,meteohub,2013-12-22 11:18:00,
2013-12-22 05:23:00,1.8,-7.6,29.93,NW,315,23.0,23.0,64,0.00,,,0.00,meteohub,2013-12-22 11:23:00,
2013-12-22 05:28:00,1.8,-7.6,29.93,NW,315,20.0,24.0,64,0.00,,,0.00,meteohub,2013-12-22 11:28:00,
2013-12-22 05:33:00,1.8,-7.6,29.93,NW,315,23.0,24.0,64,0.00,,,0.00,meteohub,2013-12-22 11:33:00,
2013-12-22 05:39:00,1.8,-7.6,29.94,NW,315,21.0,27.0,64,0.00,,,0.00,meteohub,2013-12-22 11:39:00,
2013-12-22 05:44:00,1.6,-7.8,29.94,NW,315,22.0,27.0,64,0.00,,,0.00,meteohub,2013-12-22 11:44:00,
2013-12-22 05:49:00,1.6,-7.8,29.94,NW,315,24.0,27.0,64,0.00,,,0.00,meteohub,2013-12-22 11:49:00,
2013-12-22 05:54:00,1.6,-7.8,29.93,NW,315,23.0,27.0,64,0.00,,,0.00,meteohub,2013-12-22 11:54:00,
2013-12-22 05:59:00,1.4,-8.0,29.94,NW,315,22.0,27.0,64,0.00,,,0.00,meteohub,2013-12-22 11:59:00,
2013-12-22 06:05:00,1.4,-8.0,29.94,NW,315,27.0,27.0,64,0.00,,,0.00,meteohub,2013-12-22 12:05:00,
2013-12-22 06:10:00,1.2,-9.4,29.94,NW,315,25.0,26.0,60,0.00,,,0.00,meteohub,2013-12-22 12:10:00,
2013-12-22 06:15:00,1.4,-8.0,29.93,NW,315,26.0,27.0,64,0.00,,,0.00,meteohub,2013-12-22 12:15:00,
2013-12-22 06:20:00,1.2,-9.4,29.93,NW,315,24.0,29.0,60,0.00,,,0.00,meteohub,2013-12-22 12:20:00,
2013-12-22 06:25:00,1.0,-9.6,29.94,NW,315,25.0,29.0,60,0.00,,,0.00,meteohub,2013-12-22 12:25:00,
2013-12-22 06:30:00,1.0,-9.6,29.94,NW,315,22.0,27.0,60,0.00,,,0.00,meteohub,2013-12-22 12:30:00,
2013-12-22 06:35:00,1.2,-9.4,29.94,WNW,293,23.0,25.0,60,0.00,,,0.00,meteohub,2013-12-22 12:35:00,
2013-12-22 06:40:00,1.2,-9.4,29.94,NW,315,26.0,26.0,60,0.00,,,0.00,meteohub,2013-12-22 12:40:00,
2013-12-22 06:45:00,1.0,-9.6,29.94,NW,315,24.0,27.0,60,0.00,,,0.00,meteohub,2013-12-22 12:45:00,
2013-12-22 06:50:00,1.0,-9.6,29.94,NW,315,26.0,27.0,60,0.00,,,0.00,meteohub,2013-12-22 12:50:00,
2013-12-22 06:55:00,1.0,-9.6,29.94,NW,315,21.0,27.0,60,0.00,,,0.00,meteohub,2013-12-22 12:55:00,
2013-12-22 07:01:00,1.0,-9.6,29.94,NW,315,21.0,27.0,60,0.00,,,0.00,meteohub,2013-12-22 13:01:00,
2013-12-22 07:06:00,0.9,-9.8,29.94,NW,315,21.0,27.0,60,0.00,,,0.00,meteohub,2013-12-22 13:06:00,
2013-12-22 07:11:00,0.9,-9.8,29.95,NW,315,23.0,23.0,60,0.00,,,0.00,meteohub,2013-12-22 13:11:00,
2013-12-22 07:16:00,0.7,-9.9,29.94,NW,315,23.0,24.0,60,0.00,,,0.00,meteohub,2013-12-22 13:16:00,
2013-12-22 07:21:00,0.9,-9.8,29.94,NW,315,22.0,24.0,60,0.00,,,0.00,meteohub,2013-12-22 13:21:00,
2013-12-22 07:26:00,0.9,-9.8,29.94,West,270,20.0,24.0,60,0.00,,,0.00,meteohub,2013-12-22 13:26:00,
2013-12-22 07:31:00,0.9,-9.8,29.94,NW,315,22.0,24.0,60,0.00,,,0.00,meteohub,2013-12-22 13:31:00,
2013-12-22 07:37:00,0.7,-9.9,29.94,NW,315,23.0,25.0,60,0.00,,,0.00,meteohub,2013-12-22 13:37:00,
2013-12-22 07:42:00,0.7,-9.9,29.95,NW,315,19.0,25.0,60,0.00,,,0.00,meteohub,2013-12-22 13:42:00,
2013-12-22 07:47:00,0.5,-10.1,29.95,NW,315,21.0,25.0,60,0.00,,,0.00,meteohub,2013-12-22 13:47:00,
2013-12-22 07:52:00,0.7,-9.9,29.95,NW,315,25.0,25.0,60,0.00,,,0.00,meteohub,2013-12-22 13:52:00,
2013-12-22 07:57:00,0.7,-9.9,29.95,NW,315,26.0,26.0,60,0.00,,,0.00,meteohub,2013-12-22 13:57:00,
2013-12-22 08:03:00,0.9,-9.8,29.95,West,270,23.0,26.0,60,0.00,,,0.00,meteohub,2013-12-22 14:03:00,
2013-12-22 08:08:00,0.9,-9.8,29.94,NW,315,21.0,26.0,60,0.00,,,0.00,meteohub,2013-12-22 14:08:00,
2013-12-22 08:13:00,0.9,-9.8,29.95,NW,315,19.0,26.0,60,0.00,,,0.00,meteohub,2013-12-22 14:13:00,
2013-12-22 08:18:00,1.0,-9.6,29.95,NW,315,23.0,24.0,60,0.00,,,0.00,meteohub,2013-12-22 14:18:00,
2013-12-22 08:24:00,0.9,-9.8,29.95,NW,315,24.0,24.0,60,0.00,,,0.00,meteohub,2013-12-22 14:24:00,
2013-12-22 08:29:00,1.0,-9.6,29.95,NW,315,24.0,25.0,60,0.00,,,0.00,meteohub,2013-12-22 14:29:00,
2013-12-22 08:35:00,1.0,-9.6,29.96,NW,315,25.0,25.0,60,0.00,,,0.00,meteohub,2013-12-22 14:35:00,
2013-12-22 08:40:00,1.0,-9.6,29.96,NW,315,21.0,26.0,60,0.00,,,0.00,meteohub,2013-12-22 14:40:00,
2013-12-22 08:45:00,1.0,-9.6,29.96,NW,315,25.0,26.0,60,0.00,,,0.00,meteohub,2013-12-22 14:45:00,
2013-12-22 08:51:00,1.0,-9.6,29.97,NW,315,25.0,25.0,60,0.00,,,0.00,meteohub,2013-12-22 14:51:00,
2013-12-22 08:56:00,1.0,-9.6,29.97,NW,315,25.0,29.0,60,0.00,,,0.00,meteohub,2013-12-22 14:56:00,
2013-12-22 09:02:00,1.2,-9.4,29.97,NW,315,25.0,29.0,60,0.00,,,0.00,meteohub,2013-12-22 15:02:00,
2013-12-22 09:07:00,1.2,-9.4,29.98,NW,315,27.0,29.0,60,0.00,,,0.00,meteohub,2013-12-22 15:07:00,
2013-12-22 09:12:00,1.0,-9.6,29.98,NW,315,26.0,27.0,60,0.00,,,0.00,meteohub,2013-12-22 15:12:00,
2013-12-22 09:17:00,0.9,-9.8,29.98,NW,315,23.0,30.0,60,0.00,,,0.00,meteohub,2013-12-22 15:17:00,
2013-12-22 09:23:00,0.9,-9.8,29.98,NW,315,23.0,30.0,60,0.00,,,0.00,meteohub,2013-12-22 15:23:00,
2013-12-22 09:28:00,0.5,-10.1,29.98,NW,315,22.0,30.0,60,0.00,,,0.00,meteohub,2013-12-22 15:28:00,
2013-12-22 09:33:00,0.1,-10.8,29.99,NW,315,23.0,29.0,59,0.00,,,0.00,meteohub,2013-12-22 15:33:00,
2013-12-22 09:38:00,-0.2,-11.2,29.99,NW,315,23.0,30.0,59,0.00,,,0.00,meteohub,2013-12-22 15:38:00,
2013-12-22 09:43:00,-0.6,-11.2,29.99,NW,315,23.0,30.0,60,0.00,,,0.00,meteohub,2013-12-22 15:43:00,
2013-12-22 09:49:00,-0.9,-11.6,29.99,NW,315,22.0,30.0,60,0.00,,,0.00,meteohub,2013-12-22 15:49:00,
2013-12-22 09:54:00,-1.3,-11.7,30.00,NW,315,23.0,28.0,60,0.00,,,0.00,meteohub,2013-12-22 15:54:00,
2013-12-22 09:59:00,-1.5,-11.9,30.01,NW,315,22.0,28.0,60,0.00,,,0.00,meteohub,2013-12-22 15:59:00,
2013-12-22 10:05:00,-1.3,-11.7,30.01,NW,315,25.0,27.0,60,0.00,,,0.00,meteohub,2013-12-22 16:05:00,
2013-12-22 10:10:00,-1.3,-11.7,30.01,NW,315,25.0,27.0,60,0.00,,,0.00,meteohub,2013-12-22 16:10:00,
2013-12-22 10:15:00,-1.5,-12.3,30.00,NW,315,24.0,30.0,59,0.00,,,0.00,meteohub,2013-12-22 16:15:00,
2013-12-22 10:20:00,-1.5,-12.3,30.01,NW,315,29.0,30.0,59,0.00,,,0.00,meteohub,2013-12-22 16:20:00,
2013-12-22 10:25:00,-1.5,-12.3,30.01,NW,315,30.0,30.0,59,0.00,,,0.00,meteohub,2013-12-22 16:25:00,
2013-12-22 10:31:00,-1.5,-12.3,30.01,NW,315,28.0,32.0,59,0.00,,,0.00,meteohub,2013-12-22 16:31:00,
2013-12-22 10:36:00,-1.3,-12.1,30.01,West,270,27.0,32.0,59,0.00,,,0.00,meteohub,2013-12-22 16:36:00,
2013-12-22 10:41:00,-1.1,-11.9,30.01,NW,315,23.0,32.0,59,0.00,,,0.00,meteohub,2013-12-22 16:41:00,
2013-12-22 10:47:00,-1.1,-11.9,30.02,NW,315,27.0,29.0,59,0.00,,,0.00,meteohub,2013-12-22 16:47:00,
2013-12-22 10:52:00,-1.1,-11.9,30.01,NW,315,27.0,29.0,59,0.00,,,0.00,meteohub,2013-12-22 16:52:00,
2013-12-22 10:57:00,-1.1,-11.9,30.01,NW,315,24.0,27.0,59,0.00,,,0.00,meteohub,2013-12-22 16:57:00,
2013-12-22 11:02:00,-0.9,-11.7,30.01,NW,315,24.0,28.0,59,0.00,,,0.00,meteohub,2013-12-22 17:02:00,
2013-12-22 11:07:00,-1.1,-11.9,30.01,NW,315,26.0,28.0,59,0.00,,,0.00,meteohub,2013-12-22 17:07:00,
2013-12-22 11:13:00,-1.1,-11.9,30.02,NW,315,26.0,28.0,59,0.00,,,0.00,meteohub,2013-12-22 17:13:00,
2013-12-22 11:18:00,-0.8,-11.6,30.01,NW,315,20.0,28.0,59,0.00,,,0.00,meteohub,2013-12-22 17:18:00,
2013-12-22 11:23:00,-0.6,-11.6,30.01,NW,315,24.0,28.0,59,0.00,,,0.00,meteohub,2013-12-22 17:23:00,
2013-12-22 11:28:00,-0.6,-11.6,30.01,NW,315,26.0,28.0,59,0.00,,,0.00,meteohub,2013-12-22 17:28:00,
2013-12-22 11:34:00,-1.1,-11.9,30.01,NW,315,24.0,27.0,59,0.00,,,0.00,meteohub,2013-12-22 17:34:00,
2013-12-22 11:39:00,-0.6,-11.6,30.01,NW,315,29.0,29.0,59,0.00,,,0.00,meteohub,2013-12-22 17:39:00,
2013-12-22 11:44:00,-0.4,-11.6,30.00,NW,315,26.0,31.0,58,0.00,,,0.00,meteohub,2013-12-22 17:44:00,
2013-12-22 11:50:00,-0.4,-11.6,30.00,NW,315,23.0,31.0,58,0.00,,,0.00,meteohub,2013-12-22 17:50:00,
2013-12-22 11:55:00,-0.6,-11.6,30.00,NW,315,27.0,30.0,59,0.00,,,0.00,meteohub,2013-12-22 17:55:00,
2013-12-22 12:01:00,-0.4,-11.6,30.00,NW,315,25.0,30.0,58,0.00,,,0.00,meteohub,2013-12-22 18:01:00,
2013-12-22 12:06:00,-0.4,-11.6,30.00,NW,315,24.0,31.0,58,0.00,,,0.00,meteohub,2013-12-22 18:06:00,
2013-12-22 12:12:00,-0.2,-11.6,30.00,NW,315,27.0,31.0,58,0.00,,,0.00,meteohub,2013-12-22 18:12:00,
2013-12-22 12:17:00,0.0,-11.4,30.00,NW,315,25.0,31.0,58,0.00,,,0.00,meteohub,2013-12-22 18:17:00,
2013-12-22 12:22:00,0.1,-11.2,30.00,NW,315,27.0,28.0,58,0.00,,,0.00,meteohub,2013-12-22 18:22:00,
2013-12-22 12:27:00,0.3,-11.0,30.00,NW,315,27.0,28.0,58,0.00,,,0.00,meteohub,2013-12-22 18:27:00,
2013-12-22 12:33:00,0.3,-11.0,30.00,NW,315,27.0,28.0,58,0.00,,,0.00,meteohub,2013-12-22 18:33:00,
2013-12-22 12:38:00,0.9,-10.5,30.00,NW,315,26.0,29.0,58,0.00,,,0.00,meteohub,2013-12-22 18:38:00,
2013-12-22 12:44:00,1.6,-8.1,30.00,NW,315,28.0,29.0,63,0.00,,,0.00,meteohub,2013-12-22 18:44:00,
2013-12-22 12:49:00,1.8,-8.0,30.00,West,270,27.0,29.0,63,0.00,,,0.00,meteohub,2013-12-22 18:49:00,
2013-12-22 12:54:00,2.3,-7.4,30.00,NW,315,27.0,29.0,63,0.00,,,0.00,meteohub,2013-12-22 18:54:00,
2013-12-22 12:58:00,2.7,-7.1,30.00,NW,315,28.0,30.0,63,0.00,,,0.00,meteohub,2013-12-22 18:58:00,
2013-12-22 13:02:00,2.7,-7.1,29.99,West,270,27.0,30.0,63,0.00,,,0.00,meteohub,2013-12-22 19:02:00,
2013-12-22 13:12:00,2.5,-7.2,30.00,NW,315,30.0,30.0,63,0.00,,,0.00,meteohub,2013-12-22 19:12:00,
2013-12-22 13:17:00,2.5,-7.2,30.00,NW,315,32.0,32.0,63,0.00,,,0.00,meteohub,2013-12-22 19:17:00,
2013-12-22 13:22:00,2.3,-7.4,30.00,NW,315,28.0,32.0,63,0.00,,,0.00,meteohub,2013-12-22 19:22:00,
2013-12-22 13:27:00,2.3,-7.4,30.00,NW,315,30.0,32.0,63,0.00,,,0.00,meteohub,2013-12-22 19:27:00,
2013-12-22 13:32:00,1.8,-8.3,30.00,NW,315,29.0,33.0,62,0.00,,,0.00,meteohub,2013-12-22 19:32:00,
2013-12-22 13:38:00,1.4,-8.7,30.01,NW,315,32.0,33.0,62,0.00,,,0.00,meteohub,2013-12-22 19:38:00,
2013-12-22 13:43:00,1.0,-10.3,30.01,NW,315,30.0,33.0,58,0.00,,,0.00,meteohub,2013-12-22 19:43:00,
2013-12-22 13:49:00,0.7,-10.7,30.01,NW,315,30.0,36.0,58,0.00,,,0.00,meteohub,2013-12-22 19:49:00,
2013-12-22 13:52:00,0.5,-10.8,30.01,NW,315,30.0,36.0,58,0.00,,,0.00,meteohub,2013-12-22 19:52:00,
2013-12-22 13:54:00,0.5,-10.8,30.02,West,270,30.0,36.0,58,0.00,,,0.00,meteohub,2013-12-22 19:54:00,
2013-12-22 13:59:00,0.3,-11.0,30.01,NW,315,34.0,36.0,58,0.00,,,0.00,meteohub,2013-12-22 19:59:00,
2013-12-22 14:05:00,0.1,-11.2,30.02,NW,315,30.0,34.0,58,0.00,,,0.00,meteohub,2013-12-22 20:05:00,
2013-12-22 14:10:00,0.0,-11.4,30.02,NW,315,31.0,36.0,58,0.00,,,0.00,meteohub,2013-12-22 20:10:00,
2013-12-22 14:16:00,-0.2,-11.6,30.02,NW,315,30.0,36.0,58,0.00,,,0.00,meteohub,2013-12-22 20:16:00,
2013-12-22 14:21:00,0.0,-11.4,30.03,NW,315,32.0,33.0,58,0.00,,,0.00,meteohub,2013-12-22 20:21:00,
2013-12-22 14:26:00,-0.6,-11.7,30.03,NW,315,28.0,34.0,58,0.00,,,0.00,meteohub,2013-12-22 20:26:00,
2013-12-22 14:31:00,-0.4,-11.6,30.02,NW,315,30.0,34.0,58,0.00,,,0.00,meteohub,2013-12-22 20:31:00,
2013-12-22 14:36:00,-0.4,-11.6,30.03,NW,315,30.0,34.0,58,0.00,,,0.00,meteohub,2013-12-22 20:36:00,
2013-12-22 14:41:00,-0.6,-11.6,30.03,NW,315,32.0,34.0,59,0.00,,,0.00,meteohub,2013-12-22 20:41:00,
2013-12-22 14:46:00,-0.8,-11.9,30.03,NW,315,33.0,34.0,58,0.00,,,0.00,meteohub,2013-12-22 20:46:00,
2013-12-22 14:52:00,-0.8,-11.6,30.03,NW,315,27.0,34.0,59,0.00,,,0.00,meteohub,2013-12-22 20:52:00,
2013-12-22 14:54:00,-0.9,-12.1,30.04,NW,315,27.0,34.0,58,0.00,,,0.00,meteohub,2013-12-22 20:54:00,
2013-12-22 15:02:00,-0.4,-11.6,30.04,NW,315,28.0,33.0,58,0.00,,,0.00,meteohub,2013-12-22 21:02:00,
2013-12-22 15:10:00,-0.6,-11.6,30.04,NW,315,27.0,29.0,59,0.00,,,0.00,meteohub,2013-12-22 21:10:00,
2013-12-22 15:16:00,-0.8,-11.9,30.04,NW,315,27.0,30.0,58,0.00,,,0.00,meteohub,2013-12-22 21:16:00,
2013-12-22 15:21:00,-0.9,-12.1,30.04,NW,315,26.0,32.0,58,0.00,,,0.00,meteohub,2013-12-22 21:21:00,
2013-12-22 15:26:00,-0.9,-12.1,30.04,NW,315,28.0,32.0,58,0.00,,,0.00,meteohub,2013-12-22 21:26:00,
2013-12-22 15:29:00,-0.8,-11.6,30.04,WNW,293,26.0,32.0,59,0.00,,,0.00,meteohub,2013-12-22 21:29:00,
2013-12-22 15:34:00,-1.1,-12.3,30.05,NW,315,27.0,32.0,58,0.00,,,0.00,meteohub,2013-12-22 21:34:00,
2013-12-22 15:39:00,-1.5,-12.6,30.05,NW,315,23.0,31.0,58,0.00,,,0.00,meteohub,2013-12-22 21:39:00,
2013-12-22 15:45:00,-1.8,-13.0,30.05,NW,315,25.0,31.0,58,0.00,,,0.00,meteohub,2013-12-22 21:45:00,
2013-12-22 15:46:00,-1.8,-13.0,30.06,West,270,23.0,31.0,58,0.00,,,0.00,meteohub,2013-12-22 21:46:00,
2013-12-22 15:52:00,-1.5,-12.3,30.06,NW,315,23.0,31.0,59,0.00,,,0.00,meteohub,2013-12-22 21:52:00,
2013-12-22 16:02:00,-1.5,-12.3,30.07,NW,315,27.0,30.0,59,0.00,,,0.00,meteohub,2013-12-22 22:02:00,
2013-12-22 16:07:00,-1.7,-12.5,30.07,NW,315,23.0,30.0,59,0.00,,,0.00,meteohub,2013-12-22 22:07:00,
2013-12-22 16:12:00,-1.3,-12.1,30.07,NW,315,27.0,30.0,59,0.00,,,0.00,meteohub,2013-12-22 22:12:00,
2013-12-22 16:18:00,-1.1,-11.9,30.07,NW,315,28.0,30.0,59,0.00,,,0.00,meteohub,2013-12-22 22:18:00,
2013-12-22 16:23:00,-1.1,-11.9,30.08,NW,315,24.0,27.0,59,0.00,,,0.00,meteohub,2013-12-22 22:23:00,
2013-12-22 16:28:00,-0.9,-11.7,30.08,NW,315,27.0,28.0,59,0.00,,,0.00,meteohub,2013-12-22 22:28:00,
2013-12-22 16:33:00,-0.9,-11.7,30.08,West,270,29.0,29.0,59,0.00,,,0.00,meteohub,2013-12-22 22:33:00,
2013-12-22 16:39:00,-1.1,-11.9,30.08,NW,315,25.0,27.0,59,0.00,,,0.00,meteohub,2013-12-22 22:39:00,
2013-12-22 16:45:00,-1.1,-11.9,30.09,NW,315,28.0,30.0,59,0.00,,,0.00,meteohub,2013-12-22 22:45:00,
2013-12-22 16:50:00,-1.3,-12.1,30.09,NW,315,26.0,30.0,59,0.00,,,0.00,meteohub,2013-12-22 22:50:00,
2013-12-22 16:55:00,-1.5,-12.3,30.09,North,0,36.0,36.0,59,0.00,,,0.00,meteohub,2013-12-22 22:55:00,
2013-12-22 17:01:00,-1.8,-12.6,30.09,West,270,27.0,36.0,59,0.00,,,0.00,meteohub,2013-12-22 23:01:00,
2013-12-22 17:06:00,-2.0,-12.8,30.09,NW,315,28.0,36.0,59,0.00,,,0.00,meteohub,2013-12-22 23:06:00,
2013-12-22 17:11:00,-2.2,-13.0,30.10,NW,315,31.0,36.0,59,0.00,,,0.00,meteohub,2013-12-22 23:11:00,
2013-12-22 17:16:00,-2.2,-13.0,30.10,NW,315,29.0,32.0,59,0.00,,,0.00,meteohub,2013-12-22 23:16:00,
2013-12-22 17:21:00,-2.4,-12.8,30.10,West,270,27.0,32.0,60,0.00,,,0.00,meteohub,2013-12-22 23:21:00,
2013-12-22 17:27:00,-2.4,-12.8,30.10,NW,315,29.0,32.0,60,0.00,,,0.00,meteohub,2013-12-22 23:27:00,
2013-12-22 17:32:00,-2.4,-12.8,30.10,NW,315,30.0,34.0,60,0.00,,,0.00,meteohub,2013-12-22 23:32:00,
2013-12-22 17:38:00,-2.4,-12.8,30.10,NW,315,33.0,34.0,60,0.00,,,0.00,meteohub,2013-12-22 23:38:00,
2013-12-22 17:43:00,-2.6,-13.0,30.11,NW,315,29.0,34.0,60,0.00,,,0.00,meteohub,2013-12-22 23:43:00,
2013-12-22 17:48:00,-2.6,-13.4,30.10,NW,315,30.0,33.0,59,0.00,,,0.00,meteohub,2013-12-22 23:48:00,
2013-12-22 17:53:00,-2.6,-13.0,30.11,NW,315,28.0,33.0,60,0.00,,,0.00,meteohub,2013-12-22 23:53:00,
2013-12-22 17:58:00,-2.7,-13.2,30.11,NW,315,30.0,33.0,60,0.00,,,0.00,meteohub,2013-12-22 23:58:00,
2013-12-22 18:04:00,-2.7,-13.5,30.11,NW,315,30.0,32.0,59,0.00,,,0.00,meteohub,2013-12-23 00:04:00,
2013-12-22 18:09:00,-2.7,-13.5,30.12,NW,315,25.0,32.0,59,0.00,,,0.00,meteohub,2013-12-23 00:09:00,
2013-12-22 18:14:00,-2.9,-13.7,30.12,NW,315,30.0,32.0,59,0.00,,,0.00,meteohub,2013-12-23 00:14:00,
2013-12-22 18:20:00,-3.1,-13.9,30.12,NW,315,26.0,31.0,59,0.00,,,0.00,meteohub,2013-12-23 00:20:00,
2013-12-22 18:26:00,-3.1,-13.9,30.12,NW,315,27.0,30.0,59,0.00,,,0.00,meteohub,2013-12-23 00:26:00,
2013-12-22 18:31:00,-3.3,-14.1,30.12,NW,315,27.0,30.0,59,0.00,,,0.00,meteohub,2013-12-23 00:31:00,
2013-12-22 18:36:00,-3.3,-14.1,30.12,NW,315,28.0,28.0,59,0.00,,,0.00,meteohub,2013-12-23 00:36:00,
2013-12-22 18:42:00,-3.1,-13.9,30.12,West,270,30.0,30.0,59,0.00,,,0.00,meteohub,2013-12-23 00:42:00,
2013-12-22 18:47:00,-2.9,-13.4,30.12,NW,315,27.0,30.0,60,0.00,,,0.00,meteohub,2013-12-23 00:47:00,
2013-12-22 18:52:00,-2.9,-13.4,30.12,NW,315,27.0,30.0,60,0.00,,,0.00,meteohub,2013-12-23 00:52:00,
2013-12-22 18:58:00,-2.7,-13.2,30.13,WNW,293,26.0,30.0,60,0.00,,,0.00,meteohub,2013-12-23 00:58:00,
2013-12-22 19:03:00,-2.7,-13.2,30.12,NW,315,27.0,30.0,60,0.00,,,0.00,meteohub,2013-12-23 01:03:00,
2013-12-22 19:09:00,-2.7,-13.2,30.13,NW,315,27.0,30.0,60,0.00,,,0.00,meteohub,2013-12-23 01:09:00,
2013-12-22 19:14:00,-2.7,-13.2,30.12,NW,315,28.0,29.0,60,0.00,,,0.00,meteohub,2013-12-23 01:14:00,
2013-12-22 19:20:00,-2.6,-13.0,30.13,NW,315,29.0,29.0,60,0.00,,,0.00,meteohub,2013-12-23 01:20:00,
2013-12-22 19:25:00,-2.6,-13.0,30.12,NW,315,30.0,30.0,60,0.00,,,0.00,meteohub,2013-12-23 01:25:00,
2013-12-22 19:30:00,-2.6,-13.0,30.13,NW,315,29.0,34.0,60,0.00,,,0.00,meteohub,2013-12-23 01:30:00,
2013-12-22 19:35:00,-2.6,-13.0,30.13,NW,315,30.0,34.0,60,0.00,,,0.00,meteohub,2013-12-23 01:35:00,
2013-12-22 19:40:00,-2.7,-13.2,30.13,NW,315,36.0,36.0,60,0.00,,,0.00,meteohub,2013-12-23 01:40:00,
2013-12-22 19:45:00,-2.9,-13.7,30.13,NW,315,34.0,36.0,59,0.00,,,0.00,meteohub,2013-12-23 01:45:00,
2013-12-22 19:51:00,-2.9,-13.7,30.14,NW,315,30.0,36.0,59,0.00,,,0.00,meteohub,2013-12-23 01:51:00,
2013-12-22 19:56:00,-2.9,-13.7,30.14,NW,315,23.0,36.0,59,0.00,,,0.00,meteohub,2013-12-23 01:56:00,
2013-12-22 20:01:00,-2.9,-13.7,30.14,NW,315,25.0,34.0,59,0.00,,,0.00,meteohub,2013-12-23 02:01:00,
2013-12-22 20:06:00,-2.9,-13.7,30.13,NW,315,29.0,31.0,59,0.00,,,0.00,meteohub,2013-12-23 02:06:00,
2013-12-22 20:11:00,-2.9,-13.7,30.14,NW,315,33.0,36.0,59,0.00,,,0.00,meteohub,2013-12-23 02:11:00,
2013-12-22 20:17:00,-3.1,-13.9,30.14,NW,315,24.0,36.0,59,0.00,,,0.00,meteohub,2013-12-23 02:17:00,
2013-12-22 20:22:00,-3.3,-14.1,30.14,NW,315,36.0,36.0,59,0.00,,,0.00,meteohub,2013-12-23 02:22:00,
2013-12-22 20:28:00,-3.3,-14.1,30.14,NW,315,31.0,37.0,59,0.00,,,0.00,meteohub,2013-12-23 02:28:00,
2013-12-22 20:33:00,-3.3,-14.1,30.14,NW,315,26.0,37.0,59,0.00,,,0.00,meteohub,2013-12-23 02:33:00,
2013-12-22 20:38:00,-3.3,-14.1,30.15,NW,315,29.0,37.0,59,0.00,,,0.00,meteohub,2013-12-23 02:38:00,
2013-12-22 20:43:00,-3.3,-14.4,30.15,NW,315,27.0,36.0,58,0.00,,,0.00,meteohub,2013-12-23 02:43:00,
2013-12-22 20:49:00,-3.3,-14.1,30.14,NW,315,23.0,32.0,59,0.00,,,0.00,meteohub,2013-12-23 02:49:00,
2013-12-22 20:54:00,-3.3,-14.1,30.15,NW,315,26.0,32.0,59,0.00,,,0.00,meteohub,2013-12-23 02:54:00,
2013-12-22 21:00:00,-3.3,-14.1,30.15,NW,315,27.0,28.0,59,0.00,,,0.00,meteohub,2013-12-23 03:00:00,
2013-12-22 21:05:00,-3.1,-13.9,30.14,NW,315,29.0,29.0,59,0.00,,,0.00,meteohub,2013-12-23 03:05:00,
2013-12-22 21:11:00,-3.5,-14.3,30.15,NW,315,32.0,32.0,59,0.00,,,0.00,meteohub,2013-12-23 03:11:00,
2013-12-22 21:16:00,-3.5,-14.3,30.15,NW,315,28.0,32.0,59,0.00,,,0.00,meteohub,2013-12-23 03:16:00,
2013-12-22 21:21:00,-3.5,-14.3,30.16,NW,315,33.0,33.0,59,0.00,,,0.00,meteohub,2013-12-23 03:21:00,
2013-12-22 21:26:00,-3.6,-14.6,30.15,NW,315,27.0,34.0,58,0.00,,,0.00,meteohub,2013-12-23 03:26:00,
2013-12-22 21:32:00,-3.6,-14.6,30.15,NW,315,33.0,36.0,58,0.00,,,0.00,meteohub,2013-12-23 03:32:00,
2013-12-22 21:37:00,-3.8,-14.8,30.15,NW,315,30.0,36.0,58,0.00,,,0.00,meteohub,2013-12-23 03:37:00,
2013-12-22 21:42:00,-3.8,-14.8,30.16,NW,315,29.0,36.0,58,0.00,,,0.00,meteohub,2013-12-23 03:42:00,
2013-12-22 21:47:00,-4.0,-15.0,30.16,NW,315,34.0,34.0,58,0.00,,,0.00,meteohub,2013-12-23 03:47:00,
2013-12-22 21:53:00,-4.2,-14.8,30.16,NW,315,30.0,35.0,59,0.00,,,0.00,meteohub,2013-12-23 03:53:00,
2013-12-22 21:58:00,-4.7,-15.3,30.16,West,270,33.0,35.0,59,0.00,,,0.00,meteohub,2013-12-23 03:58:00,
2013-12-22 22:03:00,-4.7,-15.3,30.17,NW,315,34.0,35.0,59,0.00,,,0.00,meteohub,2013-12-23 04:03:00,
2013-12-22 22:08:00,-5.1,-16.1,30.17,NW,315,37.0,37.0,58,0.00,,,0.00,meteohub,2013-12-23 04:08:00,
2013-12-22 22:14:00,-5.4,-16.4,30.17,NW,315,38.0,38.0,58,0.00,,,0.00,meteohub,2013-12-23 04:14:00,
2013-12-22 22:19:00,-5.6,-16.6,30.17,NW,315,29.0,38.0,58,0.00,,,0.00,meteohub,2013-12-23 04:19:00,
2013-12-22 22:24:00,-5.8,-16.8,30.18,NW,315,36.0,38.0,58,0.00,,,0.00,meteohub,2013-12-23 04:24:00,
2013-12-22 22:29:00,-6.0,-17.0,30.18,NW,315,34.0,38.0,58,0.00,,,0.00,meteohub,2013-12-23 04:29:00,
2013-12-22 22:35:00,-6.0,-17.0,30.18,NW,315,32.0,37.0,58,0.00,,,0.00,meteohub,2013-12-23 04:35:00,
2013-12-22 22:40:00,-6.2,-17.1,30.18,NW,315,24.0,36.0,58,0.00,,,0.00,meteohub,2013-12-23 04:40:00,
2013-12-22 22:45:00,-6.3,-17.3,30.18,NW,315,27.0,34.0,58,0.00,,,0.00,meteohub,2013-12-23 04:45:00,
2013-12-22 22:50:00,-6.3,-17.3,30.18,NW,315,30.0,30.0,58,0.00,,,0.00,meteohub,2013-12-23 04:50:00,
2013-12-22 22:56:00,-6.5,-17.5,30.19,West,270,33.0,33.0,58,0.00,,,0.00,meteohub,2013-12-23 04:56:00,
2013-12-22 23:01:00,-6.7,-17.7,30.19,NW,315,30.0,36.0,58,0.00,,,0.00,meteohub,2013-12-23 05:01:00,
2013-12-22 23:02:00,-6.7,-17.7,30.19,NW,315,33.0,36.0,58,0.00,,,0.00,meteohub,2013-12-23 05:02:00,
2013-12-22 23:03:00,-6.7,-17.7,30.19,NW,315,30.0,36.0,58,0.00,,,0.00,meteohub,2013-12-23 05:03:00,
2013-12-22 23:05:00,-6.9,-17.9,30.19,NW,315,33.0,36.0,58,0.00,,,0.00,meteohub,2013-12-23 05:05:00,
2013-12-22 23:06:00,-6.9,-17.9,30.19,NW,315,34.0,36.0,58,0.00,,,0.00,meteohub,2013-12-23 05:06:00,
2013-12-22 23:12:00,-6.9,-17.9,30.18,NW,315,28.0,36.0,58,0.00,,,0.00,meteohub,2013-12-23 05:12:00,
2013-12-22 23:17:00,-6.9,-17.9,30.19,NW,315,23.0,34.0,58,0.00,,,0.00,meteohub,2013-12-23 05:17:00,
2013-12-22 23:22:00,-7.1,-17.9,30.19,NW,315,34.0,34.0,58,0.00,,,0.00,meteohub,2013-12-23 05:22:00,
2013-12-22 23:27:00,-7.1,-17.9,30.20,NW,315,28.0,34.0,58,0.00,,,0.00,meteohub,2013-12-23 05:27:00,
2013-12-22 23:33:00,-7.2,-18.0,30.19,NW,315,27.0,34.0,58,0.00,,,0.00,meteohub,2013-12-23 05:33:00,
2013-12-22 23:38:00,-7.2,-18.0,30.19,NW,315,26.0,34.0,58,0.00,,,0.00,meteohub,2013-12-23 05:38:00,
2013-12-22 23:43:00,-7.4,-18.2,30.19,NW,315,26.0,34.0,58,0.00,,,0.00,meteohub,2013-12-23 05:43:00,
2013-12-22 23:48:00,-7.4,-18.2,30.20,NW,315,30.0,34.0,58,0.00,,,0.00,meteohub,2013-12-23 05:48:00,
2013-12-22 23:54:00,-7.6,-18.4,30.20,NW,315,29.0,35.0,58,0.00,,,0.00,meteohub,2013-12-23 05:54:00,
2013-12-22 23:59:00,-7.8,-20.4,30.20,NW,315,25.0,35.0,53,0.00,,,0.00,meteohub,2013-12-23 05:59:00,